Palm Springs, CA

11:08 PM PDT on May 27, 2017 (GMT -0700)
Palm Springs International

Weather History for KPSP - October, 2012

Change the Weather History Date:

Thursday, October 25, 2012

  Actual Average Record
Temperature  
Mean Temperature 70 °F 73 °F  
Max Temperature 84 °F 86 °F 103 °F (1965)
Min Temperature 56 °F 60 °F 31 °F (1951)
Degree Days  
Heating Degree Days 0 0  
Month to date heating degree days 0 0  
Since 1 July heating degree days 0 0  
Cooling Degree Days 5 8  
Month to date cooling degree days 346 294  
Year to date cooling degree days 4533 4020  
Growing Degree Days 20 (Base 50)    
Moisture  
Dew Point 29 °F    
Average Humidity 29    
Maximum Humidity 49    
Minimum Humidity 9    
Precipitation  
Precipitation 0.00 in 0.02 in 0.12 in (1927)
Month to date precipitation 0.00 0.33  
Year to date precipitation 1.82 4.22  
Since 1 July precipitation 1.03  
Snow  
Snow 0.00 in - - ()
Month to date snowfall 0.0  
Year to date snowfall 0.0  
Snow Depth 0.00 in    
Sea Level Pressure  
Sea Level Pressure 29.99 in    
Wind  
Wind Speed 2 mph (WNW)    
Max Wind Speed 10 mph    
Max Gust Speed 13 mph    
Visibility 10 miles    
Events      
T = Trace of Precipitation, MM = Missing Value Source: NWS Daily Summary

Daily Weather History Graph

Daily Weather History Graph

Search for Another Location

Airport or City:

Trip Planner

Search our weather history database for the weather conditions in past years. The results will help you decide how hot, cold, wet, or windy it might be!

Date:

Astronomy

Oct. 25, 2012 Rise Set
Actual Time 6:59 AM PDT 5:59 PM PDT
Civil Twilight 6:34 AM PDT 6:25 PM PDT
Nautical Twilight 6:04 AM PDT 6:54 PM PDT
Astronomical Twilight 5:35 AM PDT 7:23 PM PDT
Moon 3:39 PM PDT (10/25) 3:10 AM PDT (10/25)
Length of Visible Light 11h 51m
Length of Day
11h 00m
Waxing Gibbous, 85% of the Moon is Illuminated
Oct 25
Waxing Gibbous
Oct 29
Full
Nov 6
Last Quarter
Nov 13
New
Nov 20
First Quarter

Hourly Weather History & Observations

Time (PDT) Temp. Dew Point Humidity Pressure Visibility Wind Dir Wind Speed Gust Speed Precip Events Conditions
12:53 AM 63.0 °F 41.0 °F 45% 29.97 in 10.0 mi Calm Calm - N/A   Clear
1:53 AM 61.0 °F 41.0 °F 48% 29.99 in 10.0 mi SW 3.5 mph - N/A   Clear
2:53 AM 63.0 °F 37.9 °F 40% 29.98 in 10.0 mi Calm Calm - N/A   Clear
3:53 AM 59.0 °F 39.0 °F 48% 29.98 in 10.0 mi West 4.6 mph - N/A   Clear
4:53 AM 62.1 °F 32.0 °F 32% 29.99 in 10.0 mi West 3.5 mph - N/A   Clear
5:53 AM 59.0 °F 36.0 °F 42% 30.00 in 10.0 mi Calm Calm - N/A   Clear
6:53 AM 60.1 °F 30.9 °F 33% 30.00 in 10.0 mi NNW 4.6 mph - N/A   Clear
7:53 AM 59.0 °F 37.9 °F 46% 30.02 in 10.0 mi Calm Calm - N/A   Clear
8:53 AM 64.9 °F 32.0 °F 29% 30.04 in 10.0 mi Calm Calm - N/A   Clear
8:56 AM 64.4 °F 33.8 °F 32% 30.04 in 10.0 mi Calm Calm - N/A   Clear
9:53 AM 71.1 °F 30.0 °F 22% 30.04 in 10.0 mi Calm Calm - N/A   Clear
10:53 AM 75.0 °F 27.0 °F 17% 30.04 in 10.0 mi Calm Calm - N/A   Clear
11:53 AM 79.0 °F 19.9 °F 11% 30.03 in 10.0 mi Variable 4.6 mph - N/A   Clear
12:53 PM 81.0 °F 17.1 °F 9% 30.00 in 10.0 mi ESE 6.9 mph - N/A   Clear
1:53 PM 81.0 °F 16.0 °F 9% 29.97 in 10.0 mi Calm Calm - N/A   Clear
2:53 PM 82.0 °F 18.0 °F 9% 29.95 in 10.0 mi Variable 3.5 mph - N/A   Clear
3:53 PM 82.0 °F 19.0 °F 10% 29.94 in 10.0 mi ESE 4.6 mph - N/A   Clear
4:53 PM 82.0 °F 19.0 °F 10% 29.93 in 10.0 mi Calm Calm - N/A   Clear
5:53 PM 79.0 °F 24.1 °F 13% 29.94 in 10.0 mi Calm Calm - N/A   Clear
6:53 PM 75.9 °F 32.0 °F 20% 29.96 in 10.0 mi WNW 3.5 mph - N/A   Clear
7:53 PM 72.0 °F 32.0 °F 23% 29.98 in 10.0 mi North 5.8 mph - N/A   Clear
8:53 PM 73.0 °F 25.0 °F 17% 29.99 in 10.0 mi NW 5.8 mph - N/A   Clear
9:53 PM 70.0 °F 28.0 °F 21% 30.01 in 10.0 mi WSW 5.8 mph - N/A   Clear
10:53 PM 66.9 °F 30.0 °F 25% 30.02 in 10.0 mi North 3.5 mph - N/A   Clear
11:53 PM 73.0 °F 21.9 °F 15% 30.04 in 10.0 mi NNW 11.5 mph - N/A   Clear